WXM80 ListenWXM80 Stop

You find our weather info also at:

UK Metoffice

WeatherCloud

Weather Underground

Northeastern Weather Network

AWEKAS

Citizen Weather Observer Program (CWOP)

HAMweather, WeatherForYou, PWS Weather


Weather Underground History page Text

Daily Summary for December 21, 2016 Units:  English    Metric   Both
« Previous Day
Next Day »
Daily Weekly Monthly Yearly Custom
  High: Low: Average:
Temperature: TemperatureF °F 29.2 °F 34 °F
Dew Point: DewpointF °F 19.9 °F 23.5 °F
Humidity: Humidity % 56 % 65 %
Wind Speed: WindSpeedMPH mph 0.0 mph 1.7 mph
Wind Gust: WindSpeedGustMPH mph - -
Wind:- - WSW
Pressure: PressureIn in 30.08 in -
Precipitation: 0.00 in    
Historical Graphs
 
 
Tabular Data for December 21, 2016
Time Temperature Dew Point Pressure Wind Wind Speed Wind Gust Humidity Rainfall Rate (Hourly)
TemperatureF °F DewpointF °F PressureIn in Calm     Humidity % HourlyPrecipIn in
00:01 30.3 °F 20.3 °F 30.12 in SW 0.7 mph 29.0 mph 66 % 0.00 in
00:06 30.3 °F 20.6 °F 30.12 in West 0.6 mph 29.0 mph 67 % 0.00 in
00:11 30.3 °F 20.6 °F 30.12 in South 0.1 mph 29.0 mph 67 % 0.00 in
00:16 30.4 °F 20.7 °F 30.12 in Calm   29.0 mph 67 % 0.00 in
00:21 30.3 °F 20.6 °F 30.11 in WSW 2.6 mph 29.0 mph 67 % 0.00 in
00:26 30.3 °F 21.0 °F 30.11 in SSW 0.5 mph 29.0 mph 68 % 0.00 in
00:31 30.3 °F 20.6 °F 30.10 in SW 0.3 mph 29.0 mph 67 % 0.00 in
00:37 30.2 °F 20.9 °F 30.10 in SW 1.9 mph 29.0 mph 68 % 0.00 in
00:42 30.2 °F 20.9 °F 30.10 in WSW 1.0 mph 29.0 mph 68 % 0.00 in
00:47 30.2 °F 20.9 °F 30.10 in SW 0.7 mph 29.0 mph 68 % 0.00 in
00:52 30.1 °F 20.8 °F 30.10 in WSW 3.6 mph 29.0 mph 68 % 0.00 in
00:56 30.2 °F 20.9 °F 30.11 in WSW 0.9 mph 29.0 mph 68 % 0.00 in
01:02 30.1 °F 20.8 °F 30.10 in SW 2.3 mph 29.0 mph 68 % 0.00 in
01:07 30.1 °F 21.2 °F 30.10 in SW 1.3 mph 29.0 mph 69 % 0.00 in
01:12 30.1 °F 21.2 °F 30.10 in WSW 0.5 mph 29.0 mph 69 % 0.00 in
01:17 30.1 °F 20.8 °F 30.10 in SSW 0.3 mph 29.0 mph 68 % 0.00 in
01:22 30.0 °F 20.7 °F 30.10 in SW 0.2 mph 29.0 mph 68 % 0.00 in
01:27 30.0 °F 20.7 °F 30.10 in SSW 0.3 mph 29.0 mph 68 % 0.00 in
01:32 29.9 °F 20.6 °F 30.09 in Calm   29.0 mph 68 % 0.00 in
01:37 29.9 °F 20.6 °F 30.10 in Calm   29.0 mph 68 % 0.00 in
01:42 29.8 °F 20.5 °F 30.10 in Calm   29.0 mph 68 % 0.00 in
01:47 29.7 °F 20.1 °F 30.10 in WSW 2.1 mph 29.0 mph 67 % 0.00 in
01:52 29.7 °F 20.4 °F 30.10 in SW 1.1 mph 29.0 mph 68 % 0.00 in
01:57 29.6 °F 20.3 °F 30.09 in WSW 1.5 mph 29.0 mph 68 % 0.00 in
02:02 29.5 °F 20.2 °F 30.09 in WSW 0.3 mph 29.0 mph 68 % 0.00 in
02:07 29.5 °F 20.2 °F 30.09 in SW 1.6 mph 29.0 mph 68 % 0.00 in
02:12 29.4 °F 20.1 °F 30.10 in SW 0.2 mph 29.0 mph 68 % 0.00 in
02:17 29.3 °F 20.0 °F 30.10 in SW 0.2 mph 29.0 mph 68 % 0.00 in
02:23 29.3 °F 20.0 °F 30.09 in SW 0.5 mph 29.0 mph 68 % 0.00 in
02:28 29.2 °F 19.9 °F 30.09 in SSW 4.8 mph 29.0 mph 68 % 0.00 in
02:33 29.3 °F 20.4 °F 30.09 in SW 2.9 mph 29.0 mph 69 % 0.00 in
02:38 29.3 °F 20.0 °F 30.09 in SW 3.2 mph 29.0 mph 68 % 0.00 in
02:43 29.3 °F 20.0 °F 30.09 in SW 2.3 mph 29.0 mph 68 % 0.00 in
02:48 29.4 °F 20.1 °F 30.09 in WSW 2.0 mph 29.0 mph 68 % 0.00 in
02:53 29.4 °F 20.1 °F 30.08 in WSW 3.1 mph 29.0 mph 68 % 0.00 in
02:58 29.5 °F 20.2 °F 30.08 in SW 2.0 mph 29.0 mph 68 % 0.00 in
03:03 29.5 °F 20.2 °F 30.08 in SW 2.2 mph 29.0 mph 68 % 0.00 in
03:08 29.6 °F 20.3 °F 30.08 in SW 2.3 mph 29.0 mph 68 % 0.00 in
03:13 29.6 °F 20.3 °F 30.08 in SW 2.7 mph 29.0 mph 68 % 0.00 in
03:18 29.6 °F 20.3 °F 30.08 in WSW 2.8 mph 29.0 mph 68 % 0.00 in
03:23 29.7 °F 20.4 °F 30.08 in West 3.1 mph 29.0 mph 68 % 0.00 in
03:28 29.7 °F 20.4 °F 30.08 in WSW 2.7 mph 29.0 mph 68 % 0.00 in
03:33 29.7 °F 20.4 °F 30.08 in WSW 2.6 mph 29.0 mph 68 % 0.00 in
03:38 29.8 °F 20.5 °F 30.08 in WSW 4.5 mph 29.0 mph 68 % 0.00 in
03:43 29.9 °F 20.6 °F 30.08 in WSW 2.3 mph 29.0 mph 68 % 0.00 in
03:48 29.9 °F 20.6 °F 30.08 in WSW 2.6 mph 29.0 mph 68 % 0.00 in
03:53 30.0 °F 20.7 °F 30.08 in SW 3.8 mph 29.0 mph 68 % 0.00 in
03:59 30.0 °F 20.7 °F 30.08 in WSW 1.7 mph 29.0 mph 68 % 0.00 in
04:04 30.0 °F 20.7 °F 30.08 in WSW 2.8 mph 29.0 mph 68 % 0.00 in
04:09 30.0 °F 20.7 °F 30.08 in SW 0.8 mph 29.0 mph 68 % 0.00 in
04:14 30.0 °F 20.7 °F 30.08 in WSW 3.9 mph 29.0 mph 68 % 0.00 in
04:19 30.0 °F 20.7 °F 30.08 in WSW 1.2 mph 29.0 mph 68 % 0.00 in
04:24 29.9 °F 20.6 °F 30.08 in WSW 3.1 mph 29.0 mph 68 % 0.00 in
04:29 29.9 °F 20.6 °F 30.08 in WSW 1.3 mph 29.0 mph 68 % 0.00 in
04:34 29.9 °F 20.6 °F 30.08 in WSW 1.0 mph 29.0 mph 68 % 0.00 in
04:39 29.8 °F 20.9 °F 30.08 in WSW 1.5 mph 29.0 mph 69 % 0.00 in
04:44 29.8 °F 20.9 °F 30.08 in WSW 0.9 mph 29.0 mph 69 % 0.00 in
04:49 29.8 °F 21.2 °F 30.08 in WSW 1.0 mph 4.0 mph 70 % 0.00 in
04:54 29.7 °F 21.1 °F 30.08 in SW 2.0 mph 5.0 mph 70 % 0.00 in
04:59 29.7 °F 21.4 °F 30.08 in WSW 0.9 mph 29.0 mph 71 % 0.00 in
05:05 29.7 °F 21.4 °F 30.08 in WSW 2.3 mph 29.0 mph 71 % 0.00 in
05:10 29.6 °F 21.3 °F 30.08 in WSW 2.0 mph 29.0 mph 71 % 0.00 in
05:15 29.6 °F 21.7 °F 30.08 in West 2.9 mph 29.0 mph 72 % 0.00 in
05:20 29.6 °F 21.7 °F 30.08 in SW 3.4 mph 29.0 mph 72 % 0.00 in
05:25 29.6 °F 22.0 °F 30.08 in WSW 2.9 mph 29.0 mph 73 % 0.00 in
05:30 29.6 °F 22.0 °F 30.08 in WSW 2.2 mph 29.0 mph 73 % 0.00 in
05:35 29.6 °F 22.0 °F 30.08 in SW 2.0 mph 29.0 mph 73 % 0.00 in
05:40 29.6 °F 22.0 °F 30.08 in WSW 1.8 mph 29.0 mph 73 % 0.00 in
05:45 29.6 °F 22.0 °F 30.08 in SW 2.2 mph 29.0 mph 73 % 0.00 in
05:50 29.6 °F 22.0 °F 30.08 in WSW 2.6 mph 29.0 mph 73 % 0.00 in
05:55 29.6 °F 22.0 °F 30.08 in WSW 3.0 mph 29.0 mph 73 % 0.00 in
06:00 29.6 °F 22.0 °F 30.09 in WSW 1.4 mph 29.0 mph 73 % 0.00 in
06:05 29.6 °F 22.0 °F 30.10 in WSW 2.0 mph 29.0 mph 73 % 0.00 in
06:10 29.6 °F 22.3 °F 30.09 in WSW 1.8 mph 29.0 mph 74 % 0.00 in
06:15 29.7 °F 22.4 °F 30.09 in WSW 3.0 mph 29.0 mph 74 % 0.00 in
06:20 29.7 °F 22.7 °F 30.10 in SW 3.3 mph 29.0 mph 75 % 0.00 in
06:25 29.7 °F 22.7 °F 30.10 in WSW 3.4 mph 29.0 mph 75 % 0.00 in
06:30 29.7 °F 22.7 °F 30.10 in WSW 0.5 mph 29.0 mph 75 % 0.00 in
06:35 29.7 °F 22.7 °F 30.10 in WSW 2.0 mph 29.0 mph 75 % 0.00 in
06:40 29.7 °F 22.7 °F 30.11 in SSW 2.7 mph 29.0 mph 75 % 0.00 in
06:46 29.6 °F 22.6 °F 30.11 in SSW 2.0 mph 29.0 mph 75 % 0.00 in
06:51 29.6 °F 22.6 °F 30.11 in WSW 2.1 mph 29.0 mph 75 % 0.00 in
06:56 29.6 °F 22.6 °F 30.11 in West 2.4 mph 29.0 mph 75 % 0.00 in
07:01 29.8 °F 23.2 °F 30.11 in WSW 5.5 mph 29.0 mph 76 % 0.00 in
07:06 29.9 °F 22.9 °F 30.11 in WNW 1.1 mph 29.0 mph 75 % 0.00 in
07:11 30.1 °F 23.4 °F 30.11 in SSW 0.8 mph 29.0 mph 76 % 0.00 in
07:16 30.2 °F 23.5 °F 30.11 in SSW 0.4 mph 29.0 mph 76 % 0.00 in
07:21 30.3 °F 23.6 °F 30.11 in SSW 0.8 mph 29.0 mph 76 % 0.00 in
07:31 30.3 °F 23.6 °F 30.12 in West 3.1 mph 29.0 mph 76 % 0.00 in
07:36 30.3 °F 23.6 °F 30.12 in WSW 2.8 mph 29.0 mph 76 % 0.00 in
07:41 30.3 °F 23.6 °F 30.11 in WSW 2.2 mph 29.0 mph 76 % 0.00 in
07:46 30.3 °F 23.3 °F 30.12 in WSW 2.3 mph 29.0 mph 75 % 0.00 in
07:51 30.3 °F 23.3 °F 30.11 in SW 1.9 mph 29.0 mph 75 % 0.00 in
07:56 30.3 °F 23.3 °F 30.12 in SW 2.0 mph 29.0 mph 75 % 0.00 in
08:01 30.3 °F 23.3 °F 30.12 in SW 0.4 mph 29.0 mph 75 % 0.00 in
08:06 30.3 °F 23.3 °F 30.12 in SW 2.1 mph 29.0 mph 75 % 0.00 in
08:11 30.4 °F 23.1 °F 30.12 in SW 1.5 mph 29.0 mph 74 % 0.00 in
08:16 30.4 °F 23.1 °F 30.12 in SW 2.3 mph 29.0 mph 74 % 0.00 in
08:21 30.5 °F 23.2 °F 30.12 in WSW 0.8 mph 29.0 mph 74 % 0.00 in
08:31 30.6 °F 23.0 °F 30.12 in WSW 1.7 mph 29.0 mph 73 % 0.00 in
08:37 30.7 °F 22.7 °F 30.13 in WSW 1.3 mph 29.0 mph 72 % 0.00 in
08:42 30.8 °F 22.8 °F 30.13 in WSW 1.3 mph 29.0 mph 72 % 0.00 in
08:47 31.0 °F 23.0 °F 30.14 in SW 1.4 mph 29.0 mph 72 % 0.00 in
08:52 31.1 °F 23.1 °F 30.14 in SW 1.8 mph 29.0 mph 72 % 0.00 in
08:57 31.3 °F 23.3 °F 30.14 in SW 0.9 mph 29.0 mph 72 % 0.00 in
09:02 31.5 °F 23.8 °F 30.14 in WSW 1.5 mph 29.0 mph 73 % 0.00 in
09:07 31.8 °F 24.1 °F 30.14 in West 2.2 mph 29.0 mph 73 % 0.00 in
09:12 32.1 °F 24.1 °F 30.15 in West 3.6 mph 29.0 mph 72 % 0.00 in
09:17 32.5 °F 24.1 °F 30.15 in WSW 0.6 mph 29.0 mph 71 % 0.00 in
09:22 32.9 °F 24.2 °F 30.15 in WSW 0.8 mph 29.0 mph 70 % 0.00 in
09:27 33.2 °F 24.8 °F 30.15 in WSW 1.5 mph 29.0 mph 71 % 0.00 in
09:32 33.5 °F 25.1 °F 30.15 in WSW 2.6 mph 29.0 mph 71 % 0.00 in
09:37 33.8 °F 25.0 °F 30.16 in WNW 1.7 mph 29.0 mph 70 % 0.00 in
09:42 34.1 °F 24.6 °F 30.16 in NW 3.2 mph 29.0 mph 68 % 0.00 in
09:47 34.5 °F 24.3 °F 30.16 in West 1.7 mph 29.0 mph 66 % 0.00 in
09:52 34.8 °F 24.2 °F 30.16 in WSW 2.8 mph 29.0 mph 65 % 0.00 in
09:57 35.3 °F 24.3 °F 30.16 in NW 1.1 mph 29.0 mph 64 % 0.00 in
10:02 35.5 °F 24.1 °F 30.16 in WNW 0.8 mph 29.0 mph 63 % 0.00 in
10:07 35.8 °F 24.0 °F 30.16 in WNW 2.2 mph 29.0 mph 62 % 0.00 in
10:13 36.0 °F 23.8 °F 30.16 in WNW 4.4 mph 29.0 mph 61 % 0.00 in
10:18 36.3 °F 24.1 °F 30.16 in West 2.8 mph 29.0 mph 61 % 0.00 in
10:23 36.6 °F 24.4 °F 30.16 in WNW 3.2 mph 29.0 mph 61 % 0.00 in
10:28 36.8 °F 24.2 °F 30.16 in NW 2.9 mph 29.0 mph 60 % 0.00 in
10:33 37.0 °F 24.4 °F 30.16 in SW 3.3 mph 29.0 mph 60 % 0.00 in
10:38 37.1 °F 24.1 °F 30.16 in WNW 1.6 mph 29.0 mph 59 % 0.00 in
10:43 37.1 °F 24.1 °F 30.15 in West 2.1 mph 29.0 mph 59 % 0.00 in
10:48 37.3 °F 24.3 °F 30.15 in West 3.5 mph 29.0 mph 59 % 0.00 in
10:53 37.4 °F 24.0 °F 30.16 in WNW 1.8 mph 29.0 mph 58 % 0.00 in
10:58 37.5 °F 24.1 °F 30.15 in NW 5.4 mph 29.0 mph 58 % 0.00 in
11:03 37.7 °F 24.6 °F 30.15 in NW 1.2 mph 29.0 mph 59 % 0.00 in
11:08 37.8 °F 24.3 °F 30.15 in WNW 4.1 mph 29.0 mph 58 % 0.00 in
11:14 37.9 °F 24.8 °F 30.15 in NW 1.6 mph 29.0 mph 59 % 0.00 in
11:19 38.0 °F 24.5 °F 30.15 in WNW 0.3 mph 29.0 mph 58 % 0.00 in
11:24 38.1 °F 24.2 °F 30.14 in West 2.3 mph 29.0 mph 57 % 0.00 in
11:29 38.0 °F 24.1 °F 30.15 in WNW 3.3 mph 29.0 mph 57 % 0.00 in
11:34 38.1 °F 24.6 °F 30.14 in WNW 2.7 mph 29.0 mph 58 % 0.00 in
11:39 38.2 °F 24.7 °F 30.14 in WSW 2.8 mph 29.0 mph 58 % 0.00 in
11:44 38.3 °F 24.4 °F 30.14 in WNW 1.7 mph 29.0 mph 57 % 0.00 in
11:49 38.4 °F 24.1 °F 30.14 in WNW 3.6 mph 29.0 mph 56 % 0.00 in
11:54 38.3 °F 24.0 °F 30.14 in WNW 3.7 mph 29.0 mph 56 % 0.00 in
11:59 38.2 °F 23.9 °F 30.13 in NW 2.8 mph 29.0 mph 56 % 0.00 in
12:04 38.3 °F 24.8 °F 30.14 in WSW 6.0 mph 29.0 mph 58 % 0.00 in
12:09 38.4 °F 24.9 °F 30.13 in SW 3.4 mph 29.0 mph 58 % 0.00 in
12:14 38.4 °F 24.9 °F 30.14 in WSW 3.0 mph 9.0 mph 58 % 0.00 in
12:19 38.5 °F 25.0 °F 30.12 in SW 3.0 mph 5.0 mph 58 % 0.00 in
12:24 38.5 °F 25.0 °F 30.13 in West 2.2 mph 29.0 mph 58 % 0.00 in
12:29 38.4 °F 24.9 °F 30.13 in WSW 3.0 mph 9.0 mph 58 % 0.00 in
12:34 38.4 °F 24.9 °F 30.12 in WSW 5.0 mph 9.0 mph 58 % 0.00 in
12:39 38.3 °F 24.8 °F 30.12 in WSW 3.0 mph 12.0 mph 58 % 0.00 in
12:44 38.3 °F 24.8 °F 30.12 in WSW 5.0 mph 9.0 mph 58 % 0.00 in
12:49 38.3 °F 24.8 °F 30.12 in WSW 5.0 mph 7.0 mph 58 % 0.00 in
12:54 38.2 °F 24.7 °F 30.13 in WSW 6.0 mph 10.0 mph 58 % 0.00 in
12:59 38.2 °F 24.7 °F 30.13 in WSW 5.1 mph 29.0 mph 58 % 0.00 in
13:04 38.2 °F 25.1 °F 30.13 in WSW 3.7 mph 29.0 mph 59 % 0.00 in
13:09 38.3 °F 24.8 °F 30.13 in SW 2.1 mph 29.0 mph 58 % 0.00 in
13:15 38.3 °F 24.8 °F 30.13 in SSW 4.6 mph 29.0 mph 58 % 0.00 in
13:20 38.4 °F 25.3 °F 30.12 in WSW 2.3 mph 29.0 mph 59 % 0.00 in
13:25 38.5 °F 25.0 °F 30.12 in SW 4.1 mph 29.0 mph 58 % 0.00 in
13:30 38.5 °F 25.4 °F 30.13 in SW 2.6 mph 29.0 mph 59 % 0.00 in
13:35 38.6 °F 25.5 °F 30.12 in WSW 0.5 mph 29.0 mph 59 % 0.00 in
13:40 38.6 °F 25.5 °F 30.12 in West 1.5 mph 29.0 mph 59 % 0.00 in
13:45 38.7 °F 25.6 °F 30.13 in West 4.0 mph 29.0 mph 59 % 0.00 in
13:50 38.8 °F 25.3 °F 30.12 in WNW 5.5 mph 29.0 mph 58 % 0.00 in
14:00 38.9 °F 25.4 °F 30.13 in WSW 2.4 mph 29.0 mph 58 % 0.00 in
14:05 39.0 °F 25.9 °F 30.13 in SW 0.9 mph 29.0 mph 59 % 0.00 in
14:10 39.1 °F 25.6 °F 30.13 in WSW 3.6 mph 29.0 mph 58 % 0.00 in
14:15 39.1 °F 25.6 °F 30.13 in WSW 4.4 mph 29.0 mph 58 % 0.00 in
14:20 39.1 °F 25.6 °F 30.14 in SW 3.4 mph 29.0 mph 58 % 0.00 in
14:25 39.1 °F 26.0 °F 30.14 in SW 3.8 mph 29.0 mph 59 % 0.00 in
14:30 39.1 °F 26.0 °F 30.14 in WSW 3.1 mph 29.0 mph 59 % 0.00 in
14:36 39.1 °F 26.0 °F 30.14 in WSW 3.9 mph 29.0 mph 59 % 0.00 in
14:41 39.1 °F 25.6 °F 30.14 in SSW 2.3 mph 29.0 mph 58 % 0.00 in
14:46 39.0 °F 25.5 °F 30.14 in WSW 1.1 mph 29.0 mph 58 % 0.00 in
14:51 39.0 °F 25.5 °F 30.14 in SW 2.5 mph 29.0 mph 58 % 0.00 in
14:56 39.0 °F 25.5 °F 30.13 in SW 1.2 mph 29.0 mph 58 % 0.00 in
15:01 39.0 °F 25.5 °F 30.14 in SW 2.8 mph 29.0 mph 58 % 0.00 in
15:06 39.0 °F 25.5 °F 30.13 in SW 1.8 mph 29.0 mph 58 % 0.00 in
15:11 38.9 °F 25.4 °F 30.13 in SW 2.9 mph 29.0 mph 58 % 0.00 in
15:16 38.9 °F 25.4 °F 30.13 in SW 2.5 mph 29.0 mph 58 % 0.00 in
15:21 38.9 °F 25.8 °F 30.13 in WSW 1.7 mph 29.0 mph 59 % 0.00 in
15:26 38.9 °F 25.4 °F 30.14 in SW 0.5 mph 29.0 mph 58 % 0.00 in
15:31 38.9 °F 25.8 °F 30.13 in SW 1.3 mph 29.0 mph 59 % 0.00 in
15:36 38.8 °F 25.7 °F 30.13 in SW 1.4 mph 29.0 mph 59 % 0.00 in
15:41 38.8 °F 25.7 °F 30.14 in WSW 1.6 mph 29.0 mph 59 % 0.00 in
15:52 38.7 °F 25.2 °F 30.14 in WSW 2.4 mph 29.0 mph 58 % 0.00 in
15:57 38.6 °F 25.1 °F 30.14 in SW 1.6 mph 29.0 mph 58 % 0.00 in
16:02 38.6 °F 25.5 °F 30.14 in SW 1.0 mph 29.0 mph 59 % 0.00 in
16:07 38.5 °F 25.4 °F 30.14 in SW 2.4 mph 29.0 mph 59 % 0.00 in
16:12 38.4 °F 25.7 °F 30.14 in SW 1.4 mph 29.0 mph 60 % 0.00 in
16:17 38.3 °F 25.6 °F 30.15 in SW 2.1 mph 29.0 mph 60 % 0.00 in
16:22 38.2 °F 25.5 °F 30.15 in SW 1.9 mph 29.0 mph 60 % 0.00 in
16:27 38.2 °F 25.5 °F 30.15 in SW 0.9 mph 29.0 mph 60 % 0.00 in
16:32 38.1 °F 25.4 °F 30.15 in SW 1.1 mph 29.0 mph 60 % 0.00 in
16:37 37.9 °F 25.2 °F 30.15 in SW 1.4 mph 29.0 mph 60 % 0.00 in
16:42 37.8 °F 25.1 °F 30.15 in SW 0.2 mph 29.0 mph 60 % 0.00 in
16:47 37.7 °F 24.6 °F 30.15 in Calm   29.0 mph 59 % 0.00 in
16:52 37.6 °F 24.6 °F 30.15 in Calm   29.0 mph 59 % 0.00 in
16:57 37.5 °F 24.9 °F 30.15 in Calm   29.0 mph 60 % 0.00 in
17:02 37.5 °F 24.5 °F 30.16 in SW 0.1 mph 29.0 mph 59 % 0.00 in
17:07 37.3 °F 24.3 °F 30.16 in Calm   29.0 mph 59 % 0.00 in
17:13 37.2 °F 24.2 °F 30.16 in SW 1.1 mph 29.0 mph 59 % 0.00 in
17:18 37.1 °F 24.1 °F 30.16 in West 1.5 mph 29.0 mph 59 % 0.00 in
17:23 36.9 °F 23.9 °F 30.16 in West 0.8 mph 29.0 mph 59 % 0.00 in
17:28 36.9 °F 23.5 °F 30.16 in West 0.3 mph 29.0 mph 58 % 0.00 in
17:33 36.9 °F 23.5 °F 30.16 in Calm   29.0 mph 58 % 0.00 in
17:38 36.8 °F 23.8 °F 30.16 in WSW 0.3 mph 29.0 mph 59 % 0.00 in
17:43 36.8 °F 23.8 °F 30.16 in WSW 0.7 mph 29.0 mph 59 % 0.00 in
17:48 36.8 °F 23.8 °F 30.16 in Calm   29.0 mph 59 % 0.00 in
17:53 36.7 °F 23.7 °F 30.16 in Calm   29.0 mph 59 % 0.00 in
17:58 36.7 °F 23.3 °F 30.16 in Calm   29.0 mph 58 % 0.00 in
18:03 36.6 °F 23.6 °F 30.16 in WSW 0.3 mph 29.0 mph 59 % 0.00 in
18:08 36.6 °F 23.6 °F 30.16 in Calm   29.0 mph 59 % 0.00 in
18:13 36.5 °F 23.5 °F 30.17 in Calm   29.0 mph 59 % 0.00 in
18:18 36.4 °F 23.8 °F 30.17 in Calm   29.0 mph 60 % 0.00 in
18:28 36.2 °F 23.6 °F 30.17 in WSW 0.4 mph 29.0 mph 60 % 0.00 in
18:33 36.1 °F 23.5 °F 30.17 in WSW 1.3 mph 29.0 mph 60 % 0.00 in
18:38 36.0 °F 23.4 °F 30.17 in WSW 0.6 mph 29.0 mph 60 % 0.00 in
18:44 35.8 °F 23.3 °F 30.17 in Calm   29.0 mph 60 % 0.00 in
18:49 35.7 °F 23.2 °F 30.17 in WSW 0.4 mph 29.0 mph 60 % 0.00 in
18:54 35.6 °F 23.5 °F 30.17 in Calm   29.0 mph 61 % 0.00 in
18:59 35.6 °F 23.9 °F 30.17 in WSW 0.1 mph 29.0 mph 62 % 0.00 in
19:04 35.4 °F 23.7 °F 30.17 in Calm   29.0 mph 62 % 0.00 in
19:09 35.3 °F 24.0 °F 30.17 in SW 0.1 mph 29.0 mph 63 % 0.00 in
19:14 35.3 °F 24.0 °F 30.18 in SW 0.9 mph 29.0 mph 63 % 0.00 in
19:19 35.2 °F 24.2 °F 30.18 in SW 1.1 mph 29.0 mph 64 % 0.00 in
19:24 35.1 °F 24.1 °F 30.18 in SW 1.3 mph 29.0 mph 64 % 0.00 in
19:29 35.0 °F 24.4 °F 30.17 in SW 0.8 mph 29.0 mph 65 % 0.00 in
19:34 34.9 °F 24.3 °F 30.17 in SW 0.5 mph 29.0 mph 65 % 0.00 in
19:39 34.8 °F 24.6 °F 30.18 in SSW 3.1 mph 29.0 mph 66 % 0.00 in
19:44 34.7 °F 24.5 °F 30.18 in SW 0.8 mph 29.0 mph 66 % 0.00 in
19:49 34.7 °F 24.5 °F 30.18 in SW 1.0 mph 5.0 mph 66 % 0.00 in
19:54 34.6 °F 24.8 °F 30.17 in WSW 0.3 mph 29.0 mph 67 % 0.00 in
19:59 34.6 °F 24.8 °F 30.17 in WSW 1.2 mph 29.0 mph 67 % 0.00 in
20:04 34.6 °F 24.8 °F 30.18 in WSW 0.4 mph 29.0 mph 67 % 0.00 in
20:09 34.6 °F 24.8 °F 30.17 in WSW 0.1 mph 29.0 mph 67 % 0.00 in
20:14 34.6 °F 24.8 °F 30.17 in SW 0.2 mph 29.0 mph 67 % 0.00 in
20:20 34.7 °F 24.9 °F 30.17 in SW 0.4 mph 29.0 mph 67 % 0.00 in
20:25 34.7 °F 24.9 °F 30.17 in SW 0.9 mph 29.0 mph 67 % 0.00 in
20:30 34.7 °F 24.9 °F 30.18 in WSW 0.3 mph 29.0 mph 67 % 0.00 in
20:35 34.8 °F 25.0 °F 30.18 in WSW 0.8 mph 29.0 mph 67 % 0.00 in
20:40 34.8 °F 25.0 °F 30.17 in SW 2.4 mph 29.0 mph 67 % 0.00 in
20:45 34.9 °F 25.0 °F 30.17 in Calm   29.0 mph 67 % 0.00 in
20:50 34.9 °F 25.0 °F 30.17 in Calm   29.0 mph 67 % 0.00 in
20:55 34.8 °F 25.0 °F 30.17 in SSW 0.6 mph 29.0 mph 67 % 0.00 in
21:00 34.8 °F 25.0 °F 30.17 in SSW 0.2 mph 29.0 mph 67 % 0.00 in
21:05 34.8 °F 25.0 °F 30.17 in Calm   29.0 mph 67 % 0.00 in
21:10 34.8 °F 25.0 °F 30.17 in Calm   29.0 mph 67 % 0.00 in
21:15 34.8 °F 25.3 °F 30.17 in Calm   29.0 mph 68 % 0.00 in
21:20 34.8 °F 25.3 °F 30.17 in Calm   29.0 mph 68 % 0.00 in
21:25 34.8 °F 25.3 °F 30.16 in SSW 1.0 mph 29.0 mph 68 % 0.00 in
21:30 34.7 °F 25.2 °F 30.16 in SSW 0.8 mph 29.0 mph 68 % 0.00 in
21:36 34.7 °F 25.2 °F 30.17 in SSW 0.6 mph 29.0 mph 68 % 0.00 in
21:41 34.7 °F 25.2 °F 30.16 in SSW 0.7 mph 29.0 mph 68 % 0.00 in
21:46 34.7 °F 25.2 °F 30.16 in SSW 0.6 mph 29.0 mph 68 % 0.00 in
21:51 34.8 °F 25.3 °F 30.16 in SSW 0.7 mph 29.0 mph 68 % 0.00 in
21:56 34.8 °F 25.3 °F 30.16 in SSW 1.7 mph 29.0 mph 68 % 0.00 in
22:01 34.8 °F 25.3 °F 30.16 in SSW 0.9 mph 29.0 mph 68 % 0.00 in
22:06 34.9 °F 25.4 °F 30.16 in SSW 1.6 mph 29.0 mph 68 % 0.00 in
22:11 35.0 °F 25.5 °F 30.16 in Calm   29.0 mph 68 % 0.00 in
22:16 35.1 °F 25.6 °F 30.16 in SSW 1.8 mph 29.0 mph 68 % 0.00 in
22:21 35.2 °F 25.7 °F 30.17 in WSW 3.1 mph 29.0 mph 68 % 0.00 in
22:26 35.2 °F 25.7 °F 30.16 in WSW 1.5 mph 29.0 mph 68 % 0.00 in
22:31 35.3 °F 25.8 °F 30.16 in WSW 1.4 mph 29.0 mph 68 % 0.00 in
22:36 35.3 °F 25.8 °F 30.16 in SW 1.5 mph 29.0 mph 68 % 0.00 in
22:41 35.4 °F 25.9 °F 30.16 in WSW 1.9 mph 29.0 mph 68 % 0.00 in
22:47 35.4 °F 25.9 °F 30.16 in SW 0.9 mph 29.0 mph 68 % 0.00 in
22:52 35.5 °F 26.0 °F 30.16 in Calm   29.0 mph 68 % 0.00 in
22:57 35.5 °F 26.0 °F 30.15 in Calm   29.0 mph 68 % 0.00 in
23:02 35.6 °F 26.1 °F 30.15 in Calm   29.0 mph 68 % 0.00 in
23:07 35.6 °F 26.1 °F 30.15 in Calm   29.0 mph 68 % 0.00 in
23:12 35.6 °F 26.4 °F 30.15 in Calm   29.0 mph 69 % 0.00 in
23:17 35.6 °F 26.4 °F 30.15 in Calm   29.0 mph 69 % 0.00 in
23:22 35.6 °F 26.4 °F 30.14 in Calm   29.0 mph 69 % 0.00 in
23:32 35.5 °F 26.3 °F 30.14 in Calm   29.0 mph 69 % 0.00 in
23:37 35.5 °F 26.3 °F 30.14 in Calm   29.0 mph 69 % 0.00 in
23:42 35.5 °F 26.3 °F 30.13 in SW 0.2 mph 29.0 mph 69 % 0.00 in
23:47 35.4 °F 26.2 °F 30.14 in Calm   29.0 mph 69 % 0.00 in
23:52 35.4 °F 26.2 °F 30.14 in SW 1.9 mph 29.0 mph 69 % 0.00 in
23:57 35.4 °F 26.6 °F 30.13 in SW 0.4 mph 29.0 mph 70 % 0.00 in
Crab Meadow Weather
Compliments of Weather Underground - 3 mb

Script developed by  Jim McMurry - jmcmurry@mwt.net Adapted for the template by  Wim van der Kuil - Leuven-Template.eu

Pollen: Each year American vegetation spews forth some 1,000,000 tons of pollen into the air we breathe.